Location: Oakhurst
(33.6448°N, 111.9543°W)
Time: 02:29:13
(UTC+00:00)

X-37B - Pass Details

Date: 14 May 2021
Orbit: 386 x 389 km, 45.0° (Epoch: 10 June)

Event Time Altitude Azimuth Distance (km) Brightness Sun altitude
Rises 04:56:05 0° 297° (WNW) 2,269 5.5 -26.9°
Reaches altitude 10° 04:58:12 10° 291° (WNW) 1,412 4.2 -27.2°
Enters shadow 04:58:52 15° 287° (WNW) 1,158 3.6 -27.2°
